Location: Eaton Estates
(41.3089°N, 82.0057°W)
Time: 09:47:35
(UTC+00:00)

USA 308 - Pass Details

Date: 25 October 2021
Orbit: 562 x 573 km, 54.0° (Epoch: 26 November)

Event Time Altitude Azimuth Distance (km) Brightness Sun altitude
Exits shadow 09:42:34 68° 110° (ESE) 607 3.1 -24.8°
Drops below altitude 10° 09:46:31 10° 54° (NE) 1,855 6.3 -24.1°
Sets 09:48:47 0° 52° (NE) 2,754 7.3 -23.6°
